Location: B�hl
(48.6968°N, 8.1352°E)
Time: 01:22:49
(UTC+00:00)

Cosmos 1544 - Pass Details

Date: 08 March 2021
Orbit: 470 x 489 km, 82.5° (Epoch: 16 April)

Event Time Altitude Azimuth Distance (km) Brightness Sun altitude
Rises 19:12:45 0° 185° (S) 2,536 6.6 -18.9°
Reaches altitude 10° 19:14:50 10° 184° (S) 1,665 5.6 -19.2°
Maximum altitude 19:18:29 78° 98° (E) 504 2.9 -19.8°
Drops below altitude 10° 19:22:10 10° 12° (NNE) 1,689 5.9 -20.4°
Sets 19:24:18 0° 11° (NNE) 2,577 6.8 -20.7°
